Time,TemperatureF,DewpointF,PressureIn,WindDirection,WindDirectionDegrees,WindSpeedMPH,WindSpeedGustMPH,Humidity,HourlyPrecipIn,Conditions,Clouds,dailyrainin,SoftwareType,DateUTC
2013-04-08 00:00:00,46.3,41.7,30.00,WSW,248,0.0,0.0,84,0.00,,,0.00,Wunderground v.1.15,2013-04-08 04:00:00,
2013-04-08 00:05:00,46.1,41.8,30.00,WSW,248,0.0,0.0,85,0.00,,,0.00,Wunderground v.1.15,2013-04-08 04:05:00,
2013-04-08 00:10:00,45.9,41.9,30.00,WSW,248,0.0,0.0,86,0.00,,,0.00,Wunderground v.1.15,2013-04-08 04:10:00,
2013-04-08 00:20:00,45.4,41.2,30.00,WSW,248,0.0,0.0,85,0.00,,,0.00,Wunderground v.1.15,2013-04-08 04:20:00,
2013-04-08 00:30:00,45.1,40.9,30.00,WSW,248,0.0,0.0,85,0.00,,,0.00,Wunderground v.1.15,2013-04-08 04:30:00,
2013-04-08 00:40:00,44.8,40.9,29.99,WSW,248,0.0,0.0,86,0.00,,,0.00,Wunderground v.1.15,2013-04-08 04:40:00,
2013-04-08 00:50:00,44.6,40.7,29.99,WSW,248,0.0,0.0,86,0.00,,,0.00,Wunderground v.1.15,2013-04-08 04:50:00,
2013-04-08 01:00:00,44.5,40.9,29.99,WSW,247,0.0,3.0,87,0.00,,,-99.99,WeatherLink 6.0.2,2013-04-08 05:00:00,
2013-04-08 01:10:00,44.5,41.2,29.99,WSW,248,0.0,0.0,88,0.00,,,0.00,Wunderground v.1.15,2013-04-08 05:10:00,
2013-04-08 01:20:00,44.6,41.3,29.99,WSW,248,0.0,0.0,88,0.00,,,0.00,Wunderground v.1.15,2013-04-08 05:20:00,
2013-04-08 01:30:00,44.8,41.5,29.99,WSW,248,0.0,0.0,88,0.00,,,0.00,Wunderground v.1.15,2013-04-08 05:30:00,
2013-04-08 01:40:00,44.9,41.6,29.99,WSW,248,0.0,0.0,88,0.00,,,0.00,Wunderground v.1.15,2013-04-08 05:40:00,
2013-04-08 01:50:00,44.7,41.4,29.98,WSW,248,0.0,0.0,88,0.00,,,0.00,Wunderground v.1.15,2013-04-08 05:50:00,
2013-04-08 02:00:00,44.6,41.3,29.98,WSW,247,0.0,2.0,88,0.00,,,-99.99,WeatherLink 6.0.2,2013-04-08 06:00:00,
2013-04-08 02:10:00,44.6,41.3,29.98,WSW,248,0.0,0.0,88,0.00,,,0.00,Wunderground v.1.15,2013-04-08 06:10:00,
2013-04-08 02:20:00,44.7,41.4,29.98,WSW,248,0.0,0.0,88,0.00,,,0.00,Wunderground v.1.15,2013-04-08 06:20:00,
2013-04-08 02:30:00,44.5,41.2,29.99,WSW,247,0.0,1.0,88,0.00,,,-99.99,WeatherLink 6.0.2,2013-04-08 06:30:00,
2013-04-08 02:40:00,44.1,41.1,29.99,WSW,248,0.0,0.0,89,0.00,,,0.00,Wunderground v.1.15,2013-04-08 06:40:00,
2013-04-08 02:50:00,44.1,41.1,29.99,WSW,248,0.0,0.0,89,0.00,,,0.00,Wunderground v.1.15,2013-04-08 06:50:00,
2013-04-08 03:00:00,43.9,40.9,29.99,WSW,248,0.0,0.0,89,0.00,,,0.00,Wunderground v.1.15,2013-04-08 07:00:00,
2013-04-08 03:10:00,43.8,40.8,29.98,WSW,248,0.0,0.0,89,0.00,,,0.00,Wunderground v.1.15,2013-04-08 07:10:00,
2013-04-08 03:20:00,43.8,40.8,29.98,SW,223,0.0,0.0,89,0.00,,,0.00,Wunderground v.1.15,2013-04-08 07:20:00,
2013-04-08 03:30:00,44.0,41.0,29.98,SW,233,0.0,1.0,89,0.00,,,0.00,Wunderground v.1.15,2013-04-08 07:30:00,
2013-04-08 03:40:00,43.6,40.6,29.98,West,260,1.0,1.0,89,0.00,,,0.00,Wunderground v.1.15,2013-04-08 07:40:00,
2013-04-08 03:50:00,43.8,41.1,29.98,NNW,328,1.0,1.0,90,0.00,,,0.00,Wunderground v.1.15,2013-04-08 07:50:00,
2013-04-08 04:00:00,43.5,40.8,29.98,West,270,0.0,2.0,90,0.00,,,-99.99,WeatherLink 6.0.2,2013-04-08 08:00:00,
2013-04-08 04:10:00,42.9,39.9,29.98,NNW,328,0.0,0.0,89,0.00,,,0.00,Wunderground v.1.15,2013-04-08 08:10:00,
2013-04-08 04:20:00,42.5,39.5,29.98,NNW,328,0.0,0.0,89,0.00,,,0.00,Wunderground v.1.15,2013-04-08 08:20:00,
2013-04-08 04:30:00,42.6,40.2,29.98,NNW,336,0.0,0.0,91,0.00,,,0.00,Wunderground v.1.15,2013-04-08 08:30:00,
2013-04-08 04:40:00,42.4,39.7,29.98,NNW,336,0.0,0.0,90,0.00,,,0.00,Wunderground v.1.15,2013-04-08 08:40:00,
2013-04-08 04:50:00,42.0,39.3,29.98,NNW,336,0.0,0.0,90,0.00,,,0.00,Wunderground v.1.15,2013-04-08 08:50:00,
2013-04-08 05:00:00,41.8,39.1,29.98,NW,315,0.0,2.0,90,0.00,,,-99.99,WeatherLink 6.0.2,2013-04-08 09:00:00,
2013-04-08 05:05:00,41.6,38.9,29.98,WNW,288,0.0,0.0,90,0.00,,,0.00,Wunderground v.1.15,2013-04-08 09:05:00,
2013-04-08 05:10:00,41.6,38.9,29.98,WNW,288,0.0,0.0,90,0.00,,,0.00,Wunderground v.1.15,2013-04-08 09:10:00,
2013-04-08 05:20:00,41.4,39.0,29.99,WNW,287,0.0,0.0,91,0.00,,,0.00,Wunderground v.1.15,2013-04-08 09:20:00,
2013-04-08 05:30:00,41.1,38.4,29.99,WNW,287,0.0,0.0,90,0.00,,,0.00,Wunderground v.1.15,2013-04-08 09:30:00,
2013-04-08 05:40:00,41.0,38.3,29.99,NW,305,0.0,0.0,90,0.00,,,0.00,Wunderground v.1.15,2013-04-08 09:40:00,
2013-04-08 05:50:00,41.2,39.1,29.99,NNW,327,0.0,0.0,92,0.00,,,0.00,Wunderground v.1.15,2013-04-08 09:50:00,
2013-04-08 06:00:00,40.9,38.2,30.00,NNW,327,0.0,0.0,90,0.00,,,0.00,Wunderground v.1.15,2013-04-08 10:00:00,
2013-04-08 06:10:00,41.2,39.1,30.00,North,356,0.0,0.0,92,0.00,,,0.00,Wunderground v.1.15,2013-04-08 10:10:00,
2013-04-08 06:20:00,41.0,38.6,30.01,North,356,0.0,0.0,91,0.00,,,0.00,Wunderground v.1.15,2013-04-08 10:20:00,
2013-04-08 06:30:00,40.9,38.5,30.02,North,0,0.0,3.0,91,0.00,,,-99.99,WeatherLink 6.0.2,2013-04-08 10:30:00,
2013-04-08 06:40:00,41.0,38.6,30.02,North,1,1.0,2.0,91,0.00,,,0.00,Wunderground v.1.15,2013-04-08 10:40:00,
2013-04-08 06:50:00,41.2,39.1,30.02,North,1,1.0,2.0,92,0.00,,,0.00,Wunderground v.1.15,2013-04-08 10:50:00,
2013-04-08 07:00:00,41.4,39.0,30.03,North,1,1.0,2.0,91,0.00,,,0.00,Wunderground v.1.15,2013-04-08 11:00:00,
2013-04-08 07:10:00,41.8,39.4,30.04,North,1,1.0,1.0,91,0.00,,,0.00,Wunderground v.1.15,2013-04-08 11:10:00,
2013-04-08 07:20:00,42.3,39.9,30.04,North,5,1.0,2.0,91,0.00,,,0.00,Wunderground v.1.15,2013-04-08 11:20:00,
2013-04-08 07:30:00,42.8,40.4,30.04,NE,36,3.0,3.0,91,0.00,,,0.00,Wunderground v.1.15,2013-04-08 11:30:00,
2013-04-08 07:40:00,43.4,40.7,30.04,NE,37,1.0,1.0,90,0.00,,,0.00,Wunderground v.1.15,2013-04-08 11:40:00,
2013-04-08 07:50:00,44.1,41.4,30.05,NNE,29,0.0,0.0,90,0.00,,,0.00,Wunderground v.1.15,2013-04-08 11:50:00,
2013-04-08 08:00:00,44.6,41.6,30.05,North,11,0.0,0.0,89,0.00,,,0.00,Wunderground v.1.15,2013-04-08 12:00:00,
2013-04-08 08:10:00,45.4,42.1,30.06,North,11,0.0,0.0,88,0.00,,,0.00,Wunderground v.1.15,2013-04-08 12:10:00,
2013-04-08 08:20:00,46.3,42.6,30.06,North,11,0.0,0.0,87,0.00,,,0.00,Wunderground v.1.15,2013-04-08 12:20:00,
2013-04-08 08:30:00,47.5,43.2,30.06,North,0,0.0,1.0,85,0.00,,,-99.99,WeatherLink 6.0.2,2013-04-08 12:30:00,
2013-04-08 08:45:00,51.2,44.6,30.06,West,269,1.0,2.0,78,0.00,,,0.00,Wunderground v.1.15,2013-04-08 12:45:00,
2013-04-08 08:50:00,52.4,44.4,30.06,West,267,3.0,4.0,74,0.00,,,0.00,Wunderground v.1.15,2013-04-08 12:50:00,
2013-04-08 09:00:00,52.6,44.2,30.06,West,273,3.0,3.0,73,0.00,,,0.00,Wunderground v.1.15,2013-04-08 13:00:00,
2013-04-08 09:10:00,53.6,44.0,30.05,NNE,27,3.0,4.0,70,0.00,,,0.00,Wunderground v.1.15,2013-04-08 13:10:00,
2013-04-08 09:20:00,54.6,44.2,30.05,NNE,20,3.0,4.0,68,0.00,,,0.00,Wunderground v.1.15,2013-04-08 13:20:00,
2013-04-08 09:30:00,56.1,44.1,30.05,NNE,22,3.0,8.0,64,0.00,,,-99.99,WeatherLink 6.0.2,2013-04-08 13:30:00,
2013-04-08 09:40:00,56.8,43.5,30.06,West,265,4.0,4.0,61,0.00,,,0.00,Wunderground v.1.15,2013-04-08 13:40:00,
2013-04-08 09:50:00,57.1,43.8,30.06,NW,306,3.0,3.0,61,0.00,,,0.00,Wunderground v.1.15,2013-04-08 13:50:00,
2013-04-08 10:00:00,57.8,43.6,30.07,West,277,4.0,4.0,59,0.00,,,0.00,Wunderground v.1.15,2013-04-08 14:00:00,
2013-04-08 10:10:00,58.7,43.0,30.07,SSW,192,4.0,4.0,56,0.00,,,0.00,Wunderground v.1.15,2013-04-08 14:10:00,
2013-04-08 10:20:00,60.0,43.3,30.07,West,276,3.0,8.0,54,0.00,,,0.00,Wunderground v.1.15,2013-04-08 14:20:00,
2013-04-08 10:30:00,58.8,42.2,30.08,NNE,24,3.0,3.0,54,0.00,,,0.00,Wunderground v.1.15,2013-04-08 14:30:00,
2013-04-08 10:41:00,59.9,42.2,30.07,WSW,250,3.0,3.0,52,0.00,,,0.00,Wunderground v.1.15,2013-04-08 14:41:00,
2013-04-08 10:50:00,60.5,42.3,30.07,NW,321,4.0,7.0,51,0.00,,,0.00,Wunderground v.1.15,2013-04-08 14:50:00,
2013-04-08 11:00:00,61.0,42.2,30.07,North,356,4.0,4.0,50,0.00,,,0.00,Wunderground v.1.15,2013-04-08 15:00:00,
2013-04-08 11:10:00,61.9,42.5,30.07,SSW,194,3.0,4.0,49,0.00,,,0.00,Wunderground v.1.15,2013-04-08 15:10:00,
2013-04-08 11:20:00,61.8,41.9,30.07,WNW,282,2.0,2.0,48,0.00,,,0.00,Wunderground v.1.15,2013-04-08 15:20:00,
2013-04-08 11:30:00,62.0,42.1,30.08,NNW,327,3.0,3.0,48,0.00,,,0.00,Wunderground v.1.15,2013-04-08 15:30:00,
2013-04-08 11:40:00,62.9,42.4,30.08,SW,236,5.0,8.0,47,0.00,,,0.00,Wunderground v.1.15,2013-04-08 15:40:00,
2013-04-08 11:50:00,63.2,42.1,30.07,WSW,238,5.0,9.0,46,0.00,,,0.00,Wunderground v.1.15,2013-04-08 15:50:00,
2013-04-08 12:00:00,63.6,41.9,30.06,WSW,252,3.0,3.0,45,0.00,,,0.00,Wunderground v.1.15,2013-04-08 16:00:00,
2013-04-08 12:10:00,62.6,41.5,30.06,SSW,196,4.0,4.0,46,0.00,,,0.00,Wunderground v.1.15,2013-04-08 16:10:00,
2013-04-08 12:20:00,63.2,41.5,30.06,West,277,3.0,3.0,45,0.00,,,0.00,Wunderground v.1.15,2013-04-08 16:20:00,
2013-04-08 12:30:00,63.8,41.5,30.06,North,0,3.0,10.0,44,0.00,,,-99.99,WeatherLink 6.0.2,2013-04-08 16:30:00,
2013-04-08 12:40:00,64.1,41.1,30.06,ENE,65,3.0,3.0,43,0.00,,,0.00,Wunderground v.1.15,2013-04-08 16:40:00,
2013-04-08 12:50:00,65.4,41.1,30.06,South,174,3.0,3.0,41,0.00,,,0.00,Wunderground v.1.15,2013-04-08 16:50:00,
2013-04-08 13:00:00,66.5,41.4,30.05,SW,217,4.0,7.0,40,0.00,,,0.00,Wunderground v.1.15,2013-04-08 17:00:00,
2013-04-08 13:10:00,67.6,41.1,30.06,West,259,2.0,2.0,38,0.00,,,0.00,Wunderground v.1.15,2013-04-08 17:10:00,
2013-04-08 13:20:00,67.9,41.3,30.05,SSE,155,4.0,4.0,38,0.00,,,0.00,Wunderground v.1.15,2013-04-08 17:20:00,
2013-04-08 13:30:00,68.4,41.1,30.05,SW,219,2.0,5.0,37,0.00,,,0.00,Wunderground v.1.15,2013-04-08 17:30:00,
2013-04-08 13:40:00,69.0,40.9,30.04,SW,233,4.0,4.0,36,0.00,,,0.00,Wunderground v.1.15,2013-04-08 17:40:00,
2013-04-08 13:50:00,69.7,40.8,30.04,SW,219,2.0,7.0,35,0.00,,,0.00,Wunderground v.1.15,2013-04-08 17:50:00,
2013-04-08 14:00:00,69.4,39.8,30.03,WSW,246,4.0,6.0,34,0.00,,,0.00,Wunderground v.1.15,2013-04-08 18:00:00,
2013-04-08 14:10:00,69.2,39.6,30.03,SW,225,5.0,11.0,34,0.00,,,0.00,Wunderground v.1.15,2013-04-08 18:10:00,
2013-04-08 14:20:00,69.9,40.2,30.03,WSW,242,5.0,5.0,34,0.00,,,0.00,Wunderground v.1.15,2013-04-08 18:20:00,
2013-04-08 14:30:00,70.3,40.6,30.02,WSW,237,5.0,5.0,34,0.00,,,0.00,Wunderground v.1.15,2013-04-08 18:30:00,
2013-04-08 14:40:00,71.2,40.6,30.02,West,267,4.0,7.0,33,0.00,,,0.00,Wunderground v.1.15,2013-04-08 18:40:00,
2013-04-08 14:50:00,71.5,40.1,30.02,SW,232,3.0,4.0,32,0.00,,,0.00,Wunderground v.1.15,2013-04-08 18:50:00,
2013-04-08 15:00:00,71.2,39.0,30.01,SSE,158,2.0,2.0,31,0.00,,,0.00,Wunderground v.1.15,2013-04-08 19:00:00,
2013-04-08 15:10:00,71.4,39.2,30.01,SW,227,3.0,3.0,31,0.00,,,0.00,Wunderground v.1.15,2013-04-08 19:10:00,
2013-04-08 15:20:00,71.3,39.1,30.01,SSW,198,3.0,4.0,31,0.00,,,0.00,Wunderground v.1.15,2013-04-08 19:20:00,
2013-04-08 15:30:00,72.4,38.3,30.00,West,278,3.0,4.0,29,0.00,,,0.00,Wunderground v.1.15,2013-04-08 19:30:00,
2013-04-08 15:40:00,72.8,38.7,30.00,SSW,196,4.0,4.0,29,0.00,,,0.00,Wunderground v.1.15,2013-04-08 19:40:00,
2013-04-08 15:50:00,73.4,38.3,30.00,South,182,2.0,6.0,28,0.00,,,0.00,Wunderground v.1.15,2013-04-08 19:50:00,
2013-04-08 16:00:00,73.1,38.9,29.99,WSW,238,2.0,6.0,29,0.00,,,0.00,Wunderground v.1.15,2013-04-08 20:00:00,
2013-04-08 16:10:00,72.9,38.8,29.99,SW,232,3.0,3.0,29,0.00,,,0.00,Wunderground v.1.15,2013-04-08 20:10:00,
2013-04-08 16:20:00,73.4,40.9,29.99,SW,234,3.0,4.0,31,0.00,,,0.00,Wunderground v.1.15,2013-04-08 20:20:00,
2013-04-08 16:30:00,73.0,40.6,29.99,South,176,4.0,4.0,31,0.00,,,0.00,Wunderground v.1.15,2013-04-08 20:30:00,
2013-04-08 16:45:00,72.7,40.3,29.99,SE,138,5.0,9.0,31,0.00,,,0.00,Wunderground v.1.15,2013-04-08 20:45:00,
2013-04-08 16:50:00,72.9,40.5,29.99,SE,128,4.0,8.0,31,0.00,,,0.00,Wunderground v.1.15,2013-04-08 20:50:00,
2013-04-08 17:00:00,72.8,40.4,29.99,SE,141,3.0,3.0,31,0.00,,,0.00,Wunderground v.1.15,2013-04-08 21:00:00,
2013-04-08 17:10:00,72.9,41.3,29.99,SSE,153,3.0,5.0,32,0.00,,,0.00,Wunderground v.1.15,2013-04-08 21:10:00,
2013-04-08 17:20:00,72.4,41.7,29.99,South,189,4.0,4.0,33,0.00,,,0.00,Wunderground v.1.15,2013-04-08 21:20:00,
2013-04-08 17:30:00,72.2,42.3,29.99,SSE,151,3.0,3.0,34,0.00,,,0.00,Wunderground v.1.15,2013-04-08 21:30:00,
2013-04-08 17:40:00,71.5,42.4,29.99,SW,234,3.0,6.0,35,0.00,,,0.00,Wunderground v.1.15,2013-04-08 21:40:00,
2013-04-08 17:50:00,71.2,42.1,29.99,SE,141,5.0,5.0,35,0.00,,,0.00,Wunderground v.1.15,2013-04-08 21:50:00,
2013-04-08 18:00:00,71.0,42.0,29.99,SW,217,5.0,5.0,35,0.00,,,0.00,Wunderground v.1.15,2013-04-08 22:00:00,
2013-04-08 18:10:00,70.1,43.3,30.00,ESE,103,6.0,10.0,38,0.00,,,0.00,Wunderground v.1.15,2013-04-08 22:10:00,
2013-04-08 18:20:00,69.7,44.3,30.00,East,101,5.0,5.0,40,0.00,,,0.00,Wunderground v.1.15,2013-04-08 22:20:00,
2013-04-08 18:30:00,68.7,44.0,30.00,South,183,4.0,4.0,41,0.00,,,0.00,Wunderground v.1.15,2013-04-08 22:30:00,
2013-04-08 18:40:00,67.6,43.7,30.00,SE,126,5.0,5.0,42,0.00,,,0.00,Wunderground v.1.15,2013-04-08 22:40:00,
2013-04-08 18:50:00,66.7,42.9,30.00,SE,140,3.0,3.0,42,0.00,,,0.00,Wunderground v.1.15,2013-04-08 22:50:00,
2013-04-08 19:00:00,65.9,42.8,30.01,East,87,2.0,2.0,43,0.00,,,0.00,Wunderground v.1.15,2013-04-08 23:00:00,
2013-04-08 19:05:00,65.8,43.3,30.01,SW,231,1.0,3.0,44,0.00,,,0.00,Wunderground v.1.15,2013-04-08 23:05:00,
2013-04-08 19:10:00,65.7,43.2,30.01,SE,140,2.0,2.0,44,0.00,,,0.00,Wunderground v.1.15,2013-04-08 23:10:00,
2013-04-08 19:20:00,64.9,43.0,30.01,SSW,201,3.0,3.0,45,0.00,,,0.00,Wunderground v.1.15,2013-04-08 23:20:00,
2013-04-08 19:30:00,64.2,43.5,30.02,SE,138,2.0,2.0,47,0.00,,,0.00,Wunderground v.1.15,2013-04-08 23:30:00,
2013-04-08 19:40:00,63.3,43.3,30.02,SW,223,1.0,1.0,48,0.00,,,0.00,Wunderground v.1.15,2013-04-08 23:40:00,
2013-04-08 19:50:00,62.8,43.3,30.02,SW,232,1.0,3.0,49,0.00,,,0.00,Wunderground v.1.15,2013-04-08 23:50:00,
2013-04-08 20:00:00,62.3,43.4,30.02,ESE,116,1.0,2.0,50,0.00,,,0.00,Wunderground v.1.15,2013-04-09 00:00:00,
2013-04-08 20:10:00,61.6,43.3,30.01,ENE,59,2.0,2.0,51,0.00,,,0.00,Wunderground v.1.15,2013-04-09 00:10:00,
2013-04-08 20:20:00,61.1,42.8,30.01,NNE,24,1.0,1.0,51,0.00,,,0.00,Wunderground v.1.15,2013-04-09 00:20:00,
2013-04-08 20:30:00,60.8,43.1,30.01,NE,42,1.0,1.0,52,0.00,,,0.00,Wunderground v.1.15,2013-04-09 00:30:00,
2013-04-08 20:40:00,60.5,42.8,30.02,SE,135,0.0,1.0,52,0.00,,,0.00,Wunderground v.1.15,2013-04-09 00:40:00,
2013-04-08 20:50:00,60.4,43.2,30.02,ENE,70,1.0,1.0,53,0.00,,,0.00,Wunderground v.1.15,2013-04-09 00:50:00,
2013-04-08 21:00:00,60.3,43.1,30.02,SSE,154,1.0,1.0,53,0.00,,,0.00,Wunderground v.1.15,2013-04-09 01:00:00,
2013-04-08 21:10:00,60.1,42.9,30.03,SW,220,1.0,1.0,53,0.00,,,0.00,Wunderground v.1.15,2013-04-09 01:10:00,
2013-04-08 21:20:00,59.9,43.2,30.03,SW,232,1.0,1.0,54,0.00,,,0.00,Wunderground v.1.15,2013-04-09 01:20:00,
2013-04-08 21:30:00,59.8,43.1,30.03,SW,227,1.0,1.0,54,0.00,,,0.00,Wunderground v.1.15,2013-04-09 01:30:00,
2013-04-08 21:40:00,59.5,43.3,30.03,SSW,204,1.0,2.0,55,0.00,,,0.00,Wunderground v.1.15,2013-04-09 01:40:00,
2013-04-08 21:50:00,59.1,43.9,30.02,SW,225,1.0,1.0,57,0.00,,,0.00,Wunderground v.1.15,2013-04-09 01:50:00,
2013-04-08 22:00:00,58.7,44.0,30.01,NE,40,1.0,1.0,58,0.00,,,0.00,Wunderground v.1.15,2013-04-09 02:00:00,
2013-04-08 22:10:00,58.3,44.0,30.02,ENE,78,1.0,1.0,59,0.00,,,0.00,Wunderground v.1.15,2013-04-09 02:10:00,
2013-04-08 22:20:00,57.8,44.4,30.02,SE,137,1.0,3.0,61,0.00,,,0.00,Wunderground v.1.15,2013-04-09 02:20:00,
2013-04-08 22:30:00,57.6,44.7,30.02,WSW,238,1.0,1.0,62,0.00,,,0.00,Wunderground v.1.15,2013-04-09 02:30:00,
2013-04-08 22:40:00,57.4,44.9,30.02,NE,37,0.0,0.0,63,0.00,,,0.00,Wunderground v.1.15,2013-04-09 02:40:00,
2013-04-08 22:50:00,57.3,45.2,30.02,NNE,30,1.0,1.0,64,0.00,,,0.00,Wunderground v.1.15,2013-04-09 02:50:00,
2013-04-08 23:00:00,57.2,45.1,30.01,SSW,209,1.0,1.0,64,0.00,,,0.00,Wunderground v.1.15,2013-04-09 03:00:00,
2013-04-08 23:10:00,57.1,45.4,30.01,WSW,251,1.0,2.0,65,0.00,,,0.00,Wunderground v.1.15,2013-04-09 03:10:00,
2013-04-08 23:20:00,57.0,45.7,30.01,West,281,1.0,1.0,66,0.00,,,0.00,Wunderground v.1.15,2013-04-09 03:20:00,
2013-04-08 23:30:00,56.8,45.6,30.00,NE,51,0.0,0.0,66,0.00,,,0.00,Wunderground v.1.15,2013-04-09 03:30:00,
2013-04-08 23:40:00,56.6,45.8,30.00,North,11,1.0,1.0,67,0.00,,,0.00,Wunderground v.1.15,2013-04-09 03:40:00,
2013-04-08 23:50:00,56.4,45.6,30.00,ENE,74,0.0,1.0,67,0.00,,,0.00,Wunderground v.1.15,2013-04-09 03:50:00,